This is the latest recevied weather packets stored in our database for station/object WB4ZUT. If no packets are shown the sender has not sent any weather packets the latest 10 day(s).
| Time | Temp. | Humidity | Pressure | Rain* | Wind** | Luminosity | Snow |
|---|---|---|---|---|---|---|---|
| 1777670757 | 16.67° C | 46% | 1015.7 hPa | 0 mm | - | 168 W/m² | - |
| 1777670454 | 17.78° C | 45% | 1015.9 hPa | 0 mm | - | 557 W/m² | - |
| 1777670151 | 17.22° C | 47% | 1016 hPa | 0 mm | - | 585 W/m² | - |
| 1777669849 | 17.78° C | 44% | 1016 hPa | 0 mm | - | 392 W/m² | - |
| 1777669545 | 17.22° C | 46% | 1016 hPa | 0 mm | - | 594 W/m² | - |
| 1777669242 | 17.22° C | 43% | 1016.2 hPa | 0 mm | - | 582 W/m² | - |
| 1777668938 | 16.67° C | 49% | 1016.4 hPa | 0 mm | - | 627 W/m² | - |
| 1777668636 | 17.22° C | 45% | 1016.3 hPa | 0 mm | - | 654 W/m² | - |
| 1777668332 | 16.67° C | 46% | 1016.3 hPa | 0 mm | - | 614 W/m² | - |
| 1777668028 | 16.67° C | 47% | 1016.4 hPa | 0 mm | - | 587 W/m² | - |
| 1777667725 | 16.11° C | 46% | 1016.1 hPa | 0 mm | - | 279 W/m² | - |
| 1777667423 | 17.22° C | 45% | 1016.2 hPa | 0 mm | - | 646 W/m² | - |
| 1777667120 | 16.11° C | 47% | 1016.3 hPa | 0 mm | - | 636 W/m² | - |
| 1777666816 | 16.67° C | 46% | 1016.6 hPa | 0 mm | - | 162 W/m² | - |
| 1777666514 | 17.22° C | 48% | 1016.9 hPa | 0 mm | - | 679 W/m² | - |
| 1777666210 | 17.78° C | 48% | 1016.8 hPa | 0 mm | - | 746 W/m² | - |
| 1777665907 | 16.67° C | 48% | 1016.7 hPa | 0 mm | - | 766 W/m² | - |
| 1777665605 | 16.11° C | 50% | 1016.5 hPa | 0 mm | - | 780 W/m² | - |
| 1777665301 | 15.56° C | 50% | 1016.7 hPa | 0 mm | - | 723 W/m² | - |
| 1777664997 | 16.67° C | 49% | 1016.8 hPa | 0 mm | - | 240 W/m² | - |
| 1777664693 | 16.11° C | 49% | 1017 hPa | 0 mm | - | 652 W/m² | - |
| 1777664389 | 15.56° C | 48% | 1017.1 hPa | 0 mm | - | 688 W/m² | - |
| 1777664087 | 16.11° C | 50% | 1017 hPa | 0 mm | - | 199 W/m² | - |
| 1777663784 | 16.11° C | 48% | 1016.8 hPa | 0 mm | - | 773 W/m² | - |
| 1777663481 | 16.11° C | 53% | 1016.9 hPa | 0 mm | - | 808 W/m² | - |
* Rain latest hour (hover to see other rain measurements)
** Current wind speed in m/s (hover to see current wind gust speed)